 day,  time,  air_temp(C),  RH(%),  ground_temp10cm(C),  ground_temp20cm(C),  ground_temp40cm(C),  precipitation(mm/h),  Solar_Radiation(MJ/m2h),  lack, 
 07/07/01, 01:00,  14.4,  99,  18.8,  18.6,  17.1,   0.0,  0.00, 
 07/07/01, 02:00,  14.2,  99,  18.6,  18.6,  17.1,   0.0,  0.00, 
 07/07/01, 03:00,  14.1,  99,  18.4,  18.5,  17.1,   0.0,  0.00, 
 07/07/01, 04:00,  14.0,  99,  18.3,  18.5,  17.1,   0.0,  0.00, 
 07/07/01, 05:00,  13.8,  99,  18.1,  18.3,  17.1,   0.0,  0.00, 
 07/07/01, 06:00,  14.1,  99,  17.9,  18.3,  17.1,   0.0,  0.12, 
 07/07/01, 07:00,  15.8,  99,  17.8,  18.2,  17.1,   0.0,  0.60, 
 07/07/01, 08:00,  15.2,  99,  18.0,  18.1,  17.1,   0.0,  0.60, 
 07/07/01, 09:00,  16.3,  99,  18.2,  18.0,  17.1,   0.0,  0.94, 
 07/07/01, 10:00,  16.8,  99,  18.4,  18.0,  17.1,   0.0,  1.32, 
 07/07/01, 11:00,  17.4,  99,  18.9,  18.1,  17.1,   0.0,  1.60, 
 07/07/01, 12:00,  19.4,  89,  19.5,  18.1,  17.1,   0.0,  2.08, 
 07/07/01, 13:00,  20.5,  85,  20.2,  18.2,  17.1,   0.0,  1.89, 
 07/07/01, 14:00,  20.0,  86,  20.6,  18.3,  17.1,   0.0,  1.17, 
 07/07/01, 15:00,  18.7,  93,  20.8,  18.3,  17.1,   0.0,  0.79, 
 07/07/01, 16:00,  18.3,  91,  20.8,  18.5,  17.1,   0.0,  0.69, 
 07/07/01, 17:00,  17.8,  94,  20.7,  18.6,  17.1,   0.0,  0.41, 
 07/07/01, 18:00,  17.6,  94,  20.5,  18.6,  17.1,   0.0,  0.26, 
 07/07/01, 19:00,  16.9,  99,  20.3,  18.7,  17.1,   0.0,  0.07, 
 07/07/01, 20:00,  16.6,  99,  20.1,  18.8,  17.1,   0.0,  0.00, 
 07/07/01, 21:00,  15.9,  99,  19.8,  18.8,  17.1,   0.0,  0.00, 
 07/07/01, 22:00,  15.8,  99,  19.6,  18.8,  17.1,   0.0,  0.00, 
 07/07/01, 23:00,  15.7,  99,  19.3,  18.8,  17.1,   0.0,  0.00, 
 07/07/02, 00:00,  15.6,  99,  19.1,  18.7,  17.1,   0.0,  0.00, 
 07/07/02, 01:00,  15.6,  99,  18.9,  18.7,  17.1,   0.0,  0.00, 
 07/07/02, 02:00,  15.4,  99,  18.7,  18.6,  17.2,   0.0,  0.00, 
 07/07/02, 03:00,  15.4,  99,  18.6,  18.6,  17.2,   0.0,  0.00, 
 07/07/02, 04:00,  15.2,  99,  18.4,  18.5,  17.2,   0.0,  0.00, 
 07/07/02, 05:00,  15.3,  99,  18.3,  18.5,  17.2,   0.0,  0.00, 
 07/07/02, 06:00,  15.4,  99,  18.2,  18.5,  17.2,   0.0,  0.05, 
 07/07/02, 07:00,  15.8,  99,  18.1,  18.4,  17.2,   2.0,  0.10, 
 07/07/02, 08:00,  16.3,  99,  18.0,  18.2,  17.2,   5.5,  0.17, 
 07/07/02, 09:00,  16.5,  99,  17.9,  18.2,  17.2,   8.0,  0.26, 
 07/07/02, 10:00,  17.0,  99,  17.9,  18.1,  17.2,   1.0,  0.54, 
 07/07/02, 11:00,  17.1,  99,  18.1,  18.1,  17.2,   0.5,  0.47, 
 07/07/02, 12:00,  17.3,  99,  18.2,  18.1,  17.2,   0.0,  0.37, 
 07/07/02, 13:00,  17.4,  99,  18.3,  18.0,  17.2,   1.5,  0.33, 
 07/07/02, 14:00,  17.1,  99,  18.4,  18.0,  17.2,   0.5,  0.55, 
 07/07/02, 15:00,  17.9,  99,  18.6,  18.0,  17.2,   0.0,  1.21, 
 07/07/02, 16:00,  18.0,  99,  18.9,  18.0,  17.2,   0.0,  0.86, 
 07/07/02, 17:00,  17.8,  99,  19.1,  18.1,  17.2,   0.0,  0.16, 
 07/07/02, 18:00,  17.6,  99,  19.1,  18.2,  17.3,   0.0,  0.04, 
 07/07/02, 19:00,  17.2,  99,  19.0,  18.2,  17.3,   5.5,  0.02, 
 07/07/02, 20:00,  17.0,  99,  18.8,  18.2,  17.2,   1.0,  0.00, 
 07/07/02, 21:00,  16.8,  99,  18.7,  18.3,  17.2,   0.0,  0.00, 
 07/07/02, 22:00,  16.5,  99,  18.6,  18.4,  17.2,   0.0,  0.00, 
 07/07/02, 23:00,  16.5,  99,  18.4,  18.4,  17.2,   5.0,  0.00, 
 07/07/03, 00:00,  16.3,  99,  18.3,  18.2,  17.2,   0.0,  0.00, 
 07/07/03, 01:00,  16.3,  99,  18.2,  18.2,  17.2,   0.0,  0.00, 
 07/07/03, 02:00,  16.3,  99,  18.1,  18.2,  17.3,   0.0,  0.00, 
 07/07/03, 03:00,  16.0,  99,  18.0,  18.1,  17.3,   0.0,  0.00, 
 07/07/03, 04:00,  16.0,  99,  17.9,  18.1,  17.3,   0.0,  0.00, 
 07/07/03, 05:00,  15.6,  99,  17.9,  18.0,  17.3,   0.0,  0.00, 
 07/07/03, 06:00,  16.1,  99,  17.8,  18.1,  17.3,   0.0,  0.08, 
 07/07/03, 07:00,  17.0,  99,  17.7,  18.0,  17.4,   0.0,  0.49, 
 07/07/03, 08:00,  18.1,  97,  17.8,  17.9,  17.3,   0.0,  0.85, 
 07/07/03, 09:00,  18.7,  98,  18.1,  17.9,  17.3,   0.0,  1.13, 
 07/07/03, 10:00,  18.9,  99,  18.4,  17.8,  17.3,   0.0,  1.10, 
 07/07/03, 11:00,  20.0,  94,  18.9,  17.8,  17.3,   0.0,  1.60, 
 07/07/03, 12:00,  19.9,  93,  19.5,  17.9,  17.3,   0.0,  1.48, 
 07/07/03, 13:00,  19.4,  94,  19.9,  18.1,  17.3,   0.0,  0.81, 
 07/07/03, 14:00,  19.8,  99,  20.1,  18.1,  17.2,   0.0,  0.88, 
 07/07/03, 15:00,  18.7,  99,  20.2,  18.3,  17.2,   0.0,  0.52, 
 07/07/03, 16:00,  18.5,  99,  20.2,  18.4,  17.2,   0.0,  0.43, 
 07/07/03, 17:00,  18.1,  99,  20.2,  18.5,  17.3,   0.0,  0.38, 
 07/07/03, 18:00,  18.0,  99,  20.1,  18.5,  17.3,   0.0,  0.32, 
 07/07/03, 19:00,  17.4,  99,  20.0,  18.5,  17.3,   0.0,  0.10, 
 07/07/03, 20:00,  16.9,  99,  19.9,  18.6,  17.3,   0.0,  0.00, 
 07/07/03, 21:00,  16.6,  99,  19.7,  18.6,  17.2,   0.0,  0.00, 
 07/07/03, 22:00,  15.9,  99,  19.4,  18.6,  17.2,   0.0,  0.00, 
 07/07/03, 23:00,  16.6,  99,  19.1,  18.6,  17.2,   0.0,  0.00, 
 07/07/04, 00:00,  16.5,  99,  18.9,  18.6,  17.2,   0.0,  0.00, 
 07/07/04, 01:00,  16.5,  99,  18.7,  18.6,  17.2,   0.0,  0.00, 
 07/07/04, 02:00,  16.6,  95,  18.6,  18.5,  17.2,   0.0,  0.00, 
 07/07/04, 03:00,  16.0,  99,  18.4,  18.5,  17.3,   0.0,  0.00, 
 07/07/04, 04:00,  15.7,  99,  18.3,  18.4,  17.3,   0.0,  0.00, 
 07/07/04, 05:00,  15.5,  99,  18.1,  18.3,  17.3,   0.0,  0.00, 
 07/07/04, 06:00,  16.5,  99,  18.0,  18.3,  17.3,   0.0,  0.06, 
 07/07/04, 07:00,  17.0,  97,  17.9,  18.2,  17.3,   0.0,  0.13, 
 07/07/04, 08:00,  18.1,  94,  17.9,  18.1,  17.3,   0.0,  0.50, 
 07/07/04, 09:00,  18.6,  98,  18.1,  18.1,  17.3,   0.0,  0.66, 
 07/07/04, 10:00,  18.0,  95,  18.3,  18.0,  17.4,   0.0,  0.88, 
 07/07/04, 11:00,  18.7,  99,  18.6,  18.0,  17.3,   0.0,  0.80, 
 07/07/04, 12:00,  17.9,  99,  18.8,  18.0,  17.3,   0.0,  0.52, 
 07/07/04, 13:00,  18.4,  99,  19.0,  18.1,  17.4,   0.5,  0.71, 
 07/07/04, 14:00,  17.8,  99,  19.2,  18.1,  17.3,   1.0,  0.93, 
 07/07/04, 15:00,  16.8,  99,  19.5,  18.2,  17.4,   2.0,  0.42, 
 07/07/04, 16:00,  16.4,  99,  19.5,  18.3,  17.4,   5.5,  0.22, 
 07/07/04, 17:00,  16.9,  99,  19.2,  18.4,  17.4,   3.5,  0.18, 
 07/07/04, 18:00,  16.8,  99,  19.0,  18.5,  17.4,   2.0,  0.11, 
 07/07/04, 19:00,  17.1,  99,  18.9,  18.4,  17.3,   5.0,  0.04, 
 07/07/04, 20:00,  17.5,  99,  18.7,  18.5,  17.4,   0.0,  0.00, 
 07/07/04, 21:00,  17.7,  99,  18.6,  18.5,  17.4,   1.5,  0.00, 
 07/07/04, 22:00,  17.8,  99,  18.5,  18.4,  17.3,   2.0,  0.00, 
 07/07/04, 23:00,  17.7,  99,  18.4,  18.4,  17.3,  18.5,  0.00, 
 07/07/05, 00:00,  17.6,  99,  18.3,  18.4,  17.4,   0.0,  0.00, 
 07/07/05, 01:00,  15.6,  99,  18.3,  18.4,  17.4,   0.5,  0.00, 
 07/07/05, 02:00,  15.1,  99,  18.2,  18.3,  17.4,   0.0,  0.00, 
 07/07/05, 03:00,  15.1,  99,  18.0,  18.3,  17.4,   0.5,  0.00, 
 07/07/05, 04:00,  14.7,  99,  17.9,  18.2,  17.5,   1.0,  0.00, 
 07/07/05, 05:00,  14.2,  99,  17.8,  18.2,  17.5,   0.5,  0.00, 
 07/07/05, 06:00,  13.8,  99,  17.6,  18.1,  17.5,   0.5,  0.02, 
 07/07/05, 07:00,  13.7,  99,  17.5,  18.0,  17.5,   1.0,  0.05, 
 07/07/05, 08:00,  13.8,  99,  17.3,  18.0,  17.5,   0.5,  0.38, 
 07/07/05, 09:00,  14.3,  99,  17.3,  17.9,  17.5,   0.0,  0.75, 
 07/07/05, 10:00,  14.9,  99,  17.5,  17.8,  17.5,   0.0,  1.11, 
 07/07/05, 11:00,  14.7,  99,  17.7,  17.8,  17.4,   0.0,  0.58, 
 07/07/05, 12:00,  15.7,  97,  17.8,  17.8,  17.4,   0.0,  1.01, 
 07/07/05, 13:00,  16.5,  93,  18.1,  17.7,  17.4,   0.0,  1.88, 
 07/07/05, 14:00,  17.2,  89,  18.5,  17.7,  17.5,   0.0,  2.50, 
 07/07/05, 15:00,  18.2,  80,  18.9,  17.8,  17.5,   0.0,  2.28, 
 07/07/05, 16:00,  18.5,  78,  19.1,  17.8,  17.4,   0.0,  2.41, 
 07/07/05, 17:00,  17.4,  80,  19.6,  17.9,  17.4,   0.0,  1.54, 
 07/07/05, 18:00,  16.6,  86,  19.7,  18.0,  17.4,   0.0,  0.70, 
 07/07/05, 19:00,  15.2,  88,  19.6,  18.2,  17.5,   0.0,  0.21, 
 07/07/05, 20:00,  14.3,  94,  19.2,  18.2,  17.4,   0.0,  0.01, 
 07/07/05, 21:00,  12.6,  97,  18.8,  18.3,  17.4,   0.0,  0.00, 
 07/07/05, 22:00,  12.7,  96,  18.4,  18.2,  17.3,   0.0,  0.00, 
 07/07/05, 23:00,  12.8,  96,  18.0,  18.2,  17.3,   0.0,  0.00, 
 07/07/06, 00:00,  13.1,  96,  17.7,  18.1,  17.3,   0.0,  0.00, 
 07/07/06, 01:00,  12.7,  97,  17.5,  18.1,  17.3,   0.0,  0.00, 
 07/07/06, 02:00,  11.9,  99,  17.2,  18.0,  17.3,   0.0,  0.00, 
 07/07/06, 03:00,  12.6,  97,  17.0,  17.9,  17.3,   0.0,  0.00, 
 07/07/06, 04:00,  11.9,  99,  16.7,  17.8,  17.3,   0.0,  0.00, 
 07/07/06, 05:00,  11.7,  99,  16.5,  17.7,  17.3,   0.0,  0.00, 
 07/07/06, 06:00,  14.6,  84,  16.3,  17.6,  17.3,   0.0,  0.16, 
 07/07/06, 07:00,  15.6,  89,  16.2,  17.5,  17.3,   0.0,  0.74, 
 07/07/06, 08:00,  17.2,  84,  16.4,  17.4,  17.3,   0.0,  1.46, 
 07/07/06, 09:00,  18.7,  82,  17.0,  17.3,  17.3,   0.0,  2.21, 
 07/07/06, 10:00,  17.7,  89,  17.8,  17.3,  17.4,   0.0,  1.83, 
 07/07/06, 11:00,  18.0,  83,  18.4,  17.2,  17.3,   0.0,  1.72, 
 07/07/06, 12:00,  18.4,  84,  18.9,  17.3,  17.2,   0.0,  1.79, 
 07/07/06, 13:00,  20.0,  79,  19.6,  17.4,  17.3,   0.0,  2.34, 
 07/07/06, 14:00,  18.9,  82,  20.1,  17.7,  17.2,   0.0,  2.33, 
 07/07/06, 15:00,  19.9,  82,  20.4,  17.8,  17.2,   0.0,  1.17, 
 07/07/06, 16:00,  18.8,  89,  20.5,  17.9,  17.3,   0.0,  0.99, 
 07/07/06, 17:00,  18.1,  93,  20.5,  18.1,  17.3,   0.0,  0.32, 
 07/07/06, 18:00,  17.9,  88,  20.2,  18.2,  17.3,   0.0,  0.13, 
 07/07/06, 19:00,  17.1,  95,  20.1,  18.3,  17.2,   0.0,  0.11, 
 07/07/06, 20:00,  16.3,  99,  19.9,  18.4,  17.2,   0.0,  0.01, 
 07/07/06, 21:00,  16.3,  99,  19.6,  18.5,  17.2,   0.0,  0.00, 
 07/07/06, 22:00,  16.1,  99,  19.4,  18.5,  17.3,   0.0,  0.00, 
 07/07/06, 23:00,  15.7,  99,  19.1,  18.5,  17.2,   0.0,  0.00, 
 07/07/07, 00:00,  15.4,  99,  18.9,  18.5,  17.2,   0.0,  0.00, 
 07/07/07, 01:00,  15.0,  99,  18.7,  18.5,  17.3,   0.0,  0.00, 
 07/07/07, 02:00,  14.0,  99,  18.5,  18.5,  17.2,   0.0,  0.00, 
 07/07/07, 03:00,  15.3,  96,  18.2,  18.4,  17.2,   0.0,  0.00, 
 07/07/07, 04:00,  14.0,  99,  18.0,  18.3,  17.2,   0.0,  0.00, 
 07/07/07, 05:00,  13.8,  99,  17.8,  18.2,  17.2,   0.0,  0.00, 
 07/07/07, 06:00,  14.1,  99,  17.6,  18.1,  17.3,   0.0,  0.12, 
 07/07/07, 07:00,  15.4,  98,  17.5,  18.1,  17.3,   0.0,  0.41, 
 07/07/07, 08:00,  16.7,  98,  17.5,  18.0,  17.4,   0.0,  0.93, 
 07/07/07, 09:00,  17.7,  93,  17.8,  17.9,  17.3,   0.0,  1.60, 
 07/07/07, 10:00,  19.3,  73,  18.3,  17.9,  17.3,   0.0,  2.76, 
 07/07/07, 11:00,  20.5,  79,  19.4,  17.9,  17.3,   0.0,  3.25, 
 07/07/07, 12:00,  21.6,  75,  20.6,  17.9,  17.4,   0.0,  3.26, 
 07/07/07, 13:00,  23.0,  69,  21.7,  18.0,  17.4,   0.0,  3.29, 
 07/07/07, 14:00,  22.6,  66,  22.2,  18.4,  17.4,   0.0,  3.01, 
 07/07/07, 15:00,  22.0,  71,  22.4,  18.5,  17.4,   0.0,  1.99, 
 07/07/07, 16:00,  21.8,  77,  22.4,  18.8,  17.4,   0.0,  2.01, 
 07/07/07, 17:00,  21.3,  82,  22.6,  19.1,  17.4,   0.0,  1.73, 
 07/07/07, 18:00,  19.8,  84,  22.6,  19.3,  17.4,   0.0,  0.77, 
 07/07/07, 19:00,  18.8,  71,  22.2,  19.5,  17.4,   0.0,  0.22, 
 07/07/07, 20:00,  16.7,  86,  21.8,  19.6,  17.4,   0.0,  0.00, 
 07/07/07, 21:00,  15.1,  96,  21.5,  19.7,  17.4,   0.0,  0.00, 
 07/07/07, 22:00,  15.4,  88,  21.0,  19.8,  17.4,   0.0,  0.00, 
 07/07/07, 23:00,  14.5,  90,  20.6,  19.8,  17.4,   0.0,  0.00, 
 07/07/08, 00:00,  13.7,  94,  20.2,  19.7,  17.4,   0.0,  0.00, 
 07/07/08, 01:00,  13.5,  97,  19.7,  19.6,  17.4,   0.0,  0.00, 
 07/07/08, 02:00,  12.9,  93,  19.5,  19.6,  17.4,   0.0,  0.00, 
 07/07/08, 03:00,  12.7,  94,  19.0,  19.5,  17.5,   0.0,  0.00, 
 07/07/08, 04:00,  12.5,  94,  18.7,  19.2,  17.5,   0.0,  0.00, 
 07/07/08, 05:00,  12.4,  95,  18.3,  19.1,  17.5,   0.0,  0.00, 
 07/07/08, 06:00,  13.6,  92,  18.0,  19.0,  17.5,   0.0,  0.15, 
 07/07/08, 07:00,  17.3,  78,  17.8,  18.9,  17.6,   0.0,  0.87, 
 07/07/08, 08:00,  17.0,  87,  18.0,  18.7,  17.6,   0.0,  1.61, 
 07/07/08, 09:00,  18.2,  83,  18.6,  18.6,  17.7,   0.0,  2.34, 
 07/07/08, 10:00,  20.5,  78,  19.4,  18.5,  17.7,   0.0,  2.94, 
 07/07/08, 11:00,  22.4,  68,  20.5,  18.5,  17.6,   0.0,  3.37, 
 07/07/08, 12:00,  22.2,  61,  21.7,  18.6,  17.6,   0.0,  3.36, 
 07/07/08, 13:00,  22.3,  53,  22.9,  18.8,  17.7,   0.0,  3.13, 
 07/07/08, 14:00,  23.9,  52,  23.3,  19.0,  17.7,   0.0,  2.86, 
 07/07/08, 15:00,  22.3,  70,  23.2,  19.4,  17.7,   0.0,  1.82, 
 07/07/08, 16:00,  21.0,  78,  23.1,  19.7,  17.7,   0.0,  0.92, 
 07/07/08, 17:00,  17.3,  99,  22.9,  19.9,  17.7,   1.0,  0.40, 
 07/07/08, 18:00,  17.3,  99,  22.4,  20.0,  17.6,   3.0,  0.10, 
 07/07/08, 19:00,  16.7,  99,  22.0,  20.1,  17.7,   0.0,  0.10, 
 07/07/08, 20:00,  16.6,  99,  21.7,  20.2,  17.7,   0.0,  0.01, 
 07/07/08, 21:00,  16.6,  99,  21.3,  20.2,  17.7,   0.0,  0.00, 
 07/07/08, 22:00,  16.3,  99,  20.9,  20.2,  17.8,   0.0,  0.00, 
 07/07/08, 23:00,  15.8,  99,  20.7,  20.1,  17.8,   0.0,  0.00, 
 07/07/09, 00:00,  15.3,  99,  20.4,  20.1,  17.7,   0.0,  0.00, 
 07/07/09, 01:00,  15.0,  99,  20.1,  20.0,  17.8,   0.0,  0.00, 
 07/07/09, 02:00,  14.7,  99,  20.0,  19.9,  17.8,   0.0,  0.00, 
 07/07/09, 03:00,  14.7,  99,  19.7,  19.8,  17.8,   0.0,  0.00, 
 07/07/09, 04:00,  14.8,  99,  19.6,  19.8,  17.8,   0.0,  0.00, 
 07/07/09, 05:00,  14.6,  99,  19.4,  19.7,  17.9,   0.0,  0.00, 
 07/07/09, 06:00,  14.7,  99,  19.1,  19.6,  17.9,   0.0,  0.10, 
 07/07/09, 07:00,  15.0,  99,  19.0,  19.5,  17.9,   0.0,  0.31, 
 07/07/09, 08:00,  17.4,  93,  19.0,  19.4,  17.9,   0.0,  1.33, 
 07/07/09, 09:00,  17.8,  94,  19.5,  19.2,  17.9,   0.0,  2.37, 
 07/07/09, 10:00,  19.2,  89,  20.2,  19.1,  17.9,   0.0,  2.78, 
 07/07/09, 11:00,  20.0,  83,  20.9,  19.2,  17.9,   0.0,  2.20, 
 07/07/09, 12:00,  21.3,  78,  21.7,  19.2,  17.9,   0.0,  2.36, 
 07/07/09, 13:00,  21.0,  80,  22.2,  19.5,  17.9,   0.0,  2.15, 
 07/07/09, 14:00,  21.5,  77,  22.7,  19.6,  17.9,   0.0,  1.58, 
 07/07/09, 15:00,  20.7,  79,  22.8,  19.8,  17.9,   0.0,  1.22, 
 07/07/09, 16:00,  20.0,  87,  22.8,  20.0,  17.9,   0.0,  1.56, 
 07/07/09, 17:00,  18.9,  87,  22.8,  20.1,  18.0,   0.0,  0.83, 
 07/07/09, 18:00,  18.3,  89,  22.6,  20.3,  17.9,   0.0,  0.39, 
 07/07/09, 19:00,  17.0,  98,  22.2,  20.3,  18.1,   0.0,  0.08, 
 07/07/09, 20:00,  16.5,  99,  22.0,  20.4,  18.1,   0.0,  0.00, 
 07/07/09, 21:00,  15.6,  99,  21.6,  20.4,  18.0,   0.0,  0.00, 
 07/07/09, 22:00,  15.6,  99,  21.2,  20.4,  18.0,   0.0,  0.00, 
 07/07/09, 23:00,  15.4,  99,  20.9,  20.4,  18.0,   0.0,  0.00, 
 07/07/10, 00:00,  15.5,  99,  20.6,  20.3,  18.0,   0.0,  0.00, 
 07/07/10, 01:00,  15.4,  98,  20.3,  20.2,  18.1,   0.0,  0.00, 
 07/07/10, 02:00,  15.1,  99,  20.1,  20.1,  18.1,   0.0,  0.00, 
 07/07/10, 03:00,  14.9,  99,  19.8,  20.1,  18.1,   0.0,  0.00, 
 07/07/10, 04:00,  14.9,  99,  19.7,  20.0,  18.1,   0.0,  0.00, 
 07/07/10, 05:00,  15.0,  99,  19.5,  19.9,  18.1,   0.0,  0.00, 
 07/07/10, 06:00,  14.8,  99,  19.4,  19.8,  18.2,   0.0,  0.01, 
 07/07/10, 07:00,  15.0,  99,  19.1,  19.7,  18.2,   1.0,  0.08, 
 07/07/10, 08:00,  15.2,  99,  19.0,  19.6,  18.2,   1.0,  0.24, 
 07/07/10, 09:00,  15.4,  99,  18.9,  19.5,  18.2,   1.0,  0.25, 
 07/07/10, 10:00,  15.5,  99,  18.9,  19.4,  18.2,   1.5,  0.34, 
 07/07/10, 11:00,  15.6,  99,  18.9,  19.2,  18.2,   1.5,  0.47, 
 07/07/10, 12:00,  15.8,  99,  18.9,  19.2,  18.2,   1.0,  0.66, 
 07/07/10, 13:00,  16.2,  99,  19.1,  19.1,  18.2,   1.0,  0.60, 
 07/07/10, 14:00,  15.4,  99,  19.2,  19.1,  18.2,   2.0,  0.52, 
 07/07/10, 15:00,  15.2,  99,  19.2,  19.0,  18.2,   1.5,  0.40, 
 07/07/10, 16:00,  15.6,  96,  19.1,  19.0,  18.2,   1.5,  0.26, 
 07/07/10, 17:00,  15.1,  99,  19.0,  19.0,  18.2,   1.0,  0.16, 
 07/07/10, 18:00,  15.8,  99,  18.8,  19.0,  18.2,   2.5,  0.11, 
 07/07/10, 19:00,  15.5,  99,  18.7,  19.0,  18.2,   0.0,  0.02, 
 07/07/10, 20:00,  16.3,  99,  18.5,  18.9,  18.2,   2.5,  0.00, 
 07/07/10, 21:00,  16.6,  99,  18.4,  18.9,  18.2,   3.0,  0.00, 
 07/07/10, 22:00,  16.9,  99,  18.2,  18.8,  18.1,   2.0,  0.00, 
 07/07/10, 23:00,  17.2,  99,  18.1,  18.7,  18.1,   4.0,  0.00, 
 07/07/11, 00:00,  17.4,  99,  18.1,  18.6,  18.1,   0.5,  0.00, 
 07/07/11, 01:00,  17.1,  99,  18.1,  18.6,  18.1,   1.5,  0.00, 
 07/07/11, 02:00,  17.2,  99,  18.0,  18.5,  18.1,   3.5,  0.00, 
 07/07/11, 03:00,  17.2,  99,  18.0,  18.5,  18.1,   1.5,  0.00, 
 07/07/11, 04:00,  17.2,  99,  17.9,  18.4,  18.1,   0.0,  0.00, 
 07/07/11, 05:00,  17.3,  99,  17.9,  18.4,  18.1,   3.0,  0.00, 
 07/07/11, 06:00,  17.4,  99,  17.9,  18.3,  18.1,   0.0,  0.06, 
 07/07/11, 07:00,  17.7,  99,  17.9,  18.3,  18.1,   1.5,  0.09, 
 07/07/11, 08:00,  18.0,  99,  18.0,  18.2,  18.1,   0.0,  0.46, 
 07/07/11, 09:00,  17.8,  99,  18.1,  18.2,  18.1,   0.0,  0.39, 
 07/07/11, 10:00,  17.8,  99,  18.3,  18.2,  18.0,   1.0,  0.57, 
 07/07/11, 11:00,  17.7,  99,  18.5,  18.2,  18.0,   1.5,  0.58, 
 07/07/11, 12:00,  17.7,  99,  18.6,  18.2,  18.0,   1.5,  0.70, 
 07/07/11, 13:00,  17.6,  99,  18.8,  18.2,  18.0,   1.0,  1.09, 
 07/07/11, 14:00,  18.0,  99,  19.1,  18.3,  18.0,   0.0,  0.78, 
 07/07/11, 15:00,  17.1,  99,  19.2,  18.3,  18.0,   0.5,  0.26, 
 07/07/11, 16:00,  17.0,  99,  19.4,  18.4,  17.9,   6.5,  0.27, 
 07/07/11, 17:00,  16.9,  99,  19.2,  18.5,  17.9,   0.5,  0.31, 
 07/07/11, 18:00,  16.6,  99,  19.1,  18.5,  17.9,   2.0,  0.13, 
 07/07/11, 19:00,  16.9,  99,  19.0,  18.6,  17.9,   0.5,  0.10, 
 07/07/11, 20:00,  16.9,  99,  18.9,  18.6,  17.9,   0.0,  0.00, 
 07/07/11, 21:00,  16.6,  99,  18.8,  18.6,  17.9,   0.0,  0.00, 
 07/07/11, 22:00,  16.6,  99,  18.6,  18.6,  17.9,   0.0,  0.00, 
 07/07/11, 23:00,  16.2,  99,  18.5,  18.5,  17.9,   0.0,  0.00, 
 07/07/12, 00:00,  16.2,  99,  18.4,  18.5,  17.9,   0.0,  0.00, 
 07/07/12, 01:00,  16.2,  99,  18.3,  18.5,  17.9,   0.0,  0.00, 
 07/07/12, 02:00,  16.4,  99,  18.1,  18.4,  17.9,   0.0,  0.00, 
 07/07/12, 03:00,  15.9,  99,  18.0,  18.4,  17.9,   0.0,  0.00, 
 07/07/12, 04:00,  16.2,  99,  17.9,  18.3,  17.9,   0.0,  0.00, 
 07/07/12, 05:00,  16.2,  99,  17.8,  18.3,  17.9,   0.0,  0.00, 
 07/07/12, 06:00,  16.2,  99,  17.7,  18.2,  17.9,   0.0,  0.15, 
 07/07/12, 07:00,  17.3,  98,  17.7,  18.2,  17.9,   0.0,  0.52, 
 07/07/12, 08:00,  19.2,  91,  17.8,  18.1,  17.9,   0.0,  1.34, 
 07/07/12, 09:00,  18.4,  98,  18.3,  18.1,  17.9,   0.0,  0.97, 
 07/07/12, 10:00,  19.5,  91,  18.6,  18.1,  17.9,   0.0,  1.28, 
 07/07/12, 11:00,  17.8,  99,  19.0,  18.1,  17.9,   0.0,  0.58, 
 07/07/12, 12:00,  17.0,  99,  19.2,  18.2,  17.7,   5.5,  0.07, 
 07/07/12, 13:00,  15.8,  99,  19.1,  18.3,  17.8,   4.0,  0.32, 
 07/07/12, 14:00,  18.7,  99,  19.1,  18.3,  17.8,   0.0,  1.87, 
 07/07/12, 15:00,  16.7,  99,  19.4,  18.4,  17.8,   0.5,  0.22, 
 07/07/12, 16:00,  16.0,  99,  19.4,  18.4,  17.8,   2.5,  0.16, 
 07/07/12, 17:00,  16.3,  99,  19.1,  18.5,  17.8,   0.0,  0.18, 
 07/07/12, 18:00,  16.6,  99,  19.0,  18.5,  17.8,   0.0,  0.17, 
 07/07/12, 19:00,  16.1,  99,  18.9,  18.5,  17.7,   0.0,  0.07, 
 07/07/12, 20:00,  15.9,  99,  18.8,  18.5,  17.8,   0.0,  0.00, 
 07/07/12, 21:00,  15.8,  99,  18.6,  18.5,  17.8,   0.0,  0.00, 
 07/07/12, 22:00,  15.4,  99,  18.5,  18.5,  17.8,   0.0,  0.00, 
 07/07/12, 23:00,  16.1,  99,  18.3,  18.5,  17.8,   0.0,  0.00, 
 07/07/13, 00:00,  16.4,  99,  18.2,  18.4,  17.8,   0.0,  0.00, 
 07/07/13, 01:00,  16.6,  99,  18.1,  18.4,  17.8,   0.0,  0.00, 
 07/07/13, 02:00,  16.4,  99,  18.0,  18.3,  17.8,   0.0,  0.00, 
 07/07/13, 03:00,  16.6,  99,  17.9,  18.3,  17.8,   0.0,  0.00, 
 07/07/13, 04:00,  16.6,  99,  17.9,  18.2,  17.8,   0.0,  0.00, 
 07/07/13, 05:00,  16.7,  99,  17.8,  18.2,  17.7,   0.0,  0.00, 
 07/07/13, 06:00,  17.0,  99,  17.8,  18.1,  17.8,   0.0,  0.04, 
 07/07/13, 07:00,  17.4,  99,  17.8,  18.1,  17.7,   0.0,  0.23, 
 07/07/13, 08:00,  17.4,  99,  17.9,  18.1,  17.8,   0.0,  0.29, 
 07/07/13, 09:00,  18.2,  99,  18.0,  18.0,  17.8,   0.0,  0.53, 
 07/07/13, 10:00,  18.8,  95,  18.2,  18.0,  17.8,   0.0,  0.71, 
 07/07/13, 11:00,  18.6,  96,  18.4,  18.0,  17.8,   0.0,  0.78, 
 07/07/13, 12:00,  17.8,  99,  18.6,  18.1,  17.8,   0.0,  0.36, 
 07/07/13, 13:00,  17.3,  99,  18.7,  18.1,  17.8,   0.5,  0.31, 
 07/07/13, 14:00,  18.0,  99,  18.8,  18.1,  17.8,   0.0,  1.01, 
 07/07/13, 15:00,  17.1,  99,  19.0,  18.2,  17.8,   0.0,  0.35, 
 07/07/13, 16:00,  17.2,  99,  19.0,  18.2,  17.7,   0.0,  0.51, 
 07/07/13, 17:00,  17.0,  99,  19.1,  18.2,  17.7,   0.0,  0.34, 
 07/07/13, 18:00,  16.6,  99,  19.1,  18.3,  17.7,   0.0,  0.13, 
 07/07/13, 19:00,  16.4,  99,  19.0,  18.3,  17.7,   0.0,  0.03, 
 07/07/13, 20:00,  16.3,  99,  18.8,  18.4,  17.7,   0.0,  0.00, 
 07/07/13, 21:00,  16.2,  99,  18.7,  18.4,  17.7,   0.0,  0.00, 
 07/07/13, 22:00,  16.0,  99,  18.6,  18.4,  17.7,   0.5,  0.00, 
 07/07/13, 23:00,  15.9,  99,  18.5,  18.4,  17.7,   0.5,  0.00, 
 07/07/14, 00:00,  15.8,  99,  18.3,  18.3,  17.7,   0.0,  0.00, 
 07/07/14, 01:00,  15.6,  99,  18.2,  18.3,  17.7,   1.5,  0.00, 
 07/07/14, 02:00,  15.4,  99,  18.1,  18.3,  17.7,   0.5,  0.00, 
 07/07/14, 03:00,  15.4,  99,  18.0,  18.2,  17.7,   0.0,  0.00, 
 07/07/14, 04:00,  15.4,  99,  17.9,  18.2,  17.7,   0.5,  0.00, 
 07/07/14, 05:00,  15.4,  99,  17.8,  18.2,  17.7,   1.0,  0.00, 
 07/07/14, 06:00,  15.7,  99,  17.7,  18.1,  17.7,   2.0,  0.03, 
 07/07/14, 07:00,  16.2,  99,  17.6,  18.1,  17.7,   0.5,  0.18, 
 07/07/14, 08:00,  16.3,  99,  17.6,  18.0,  17.7,   0.0,  0.34, 
 07/07/14, 09:00,  16.2,  99,  17.7,  18.0,  17.7,   1.5,  0.38, 
 07/07/14, 10:00,  16.6,  99,  17.9,  17.9,  17.7,   1.0,  0.53, 
 07/07/14, 11:00,  17.0,  99,  18.0,  17.9,  17.7,   1.5,  0.55, 
 07/07/14, 12:00,  17.4,  99,  18.2,  17.9,  17.7,   1.0,  0.60, 
 07/07/14, 13:00,  17.2,  99,  18.4,  17.9,  17.7,   5.5,  0.46, 
 07/07/14, 14:00,  17.7,  99,  18.5,  18.0,  17.8,   1.5,  0.64, 
 07/07/14, 15:00,  17.6,  99,  18.7,  18.0,  17.7,   7.0,  0.36, 
 07/07/14, 16:00,  17.5,  99,  18.7,  18.1,  17.7,   5.0,  0.22, 
 07/07/14, 17:00,  17.7,  99,  18.7,  18.1,  17.7,   1.5,  0.18, 
 07/07/14, 18:00,  17.4,  99,  18.7,  18.2,  17.7,   2.0,  0.10, 
 07/07/14, 19:00,  17.5,  99,  18.6,  18.2,  17.7,   2.5,  0.01, 
 07/07/14, 20:00,  18.1,  99,  18.5,  18.3,  17.7,   5.5,  0.00, 
 07/07/14, 21:00,  17.7,  99,  18.4,  18.3,  17.7,   4.0,  0.00, 
 07/07/14, 22:00,  18.4,  97,  18.3,  18.3,  17.7,   3.5,  0.00, 
 07/07/14, 23:00,  17.0,  99,  18.3,  18.3,  17.7,   1.0,  0.00, 
 07/07/15, 00:00,  19.5,  87,  18.2,  18.2,  17.7,   0.5,  0.00, 
 07/07/15, 01:00,  18.0,  99,  18.2,  18.2,  17.7,   4.0,  0.00, 
 07/07/15, 02:00,  18.4,  97,  18.1,  18.2,  17.7,   2.0,  0.00, 
 07/07/15, 03:00,  17.9,  99,  18.1,  18.2,  17.7,   6.0,  0.00, 
 07/07/15, 04:00,  18.6,  98,  18.0,  18.2,  17.7,   1.5,  0.00, 
 07/07/15, 05:00,  20.7,  84,  18.0,  18.1,  17.7,   0.0,  0.00, 
 07/07/15, 06:00,  18.9,  90,  18.0,  18.1,  17.7,   0.0,  0.07, 
 07/07/15, 07:00,  20.1,  80,  18.0,  18.1,  17.7,   0.0,  0.38, 
 07/07/15, 08:00,  20.6,  87,  18.1,  18.1,  17.7,   0.0,  1.35, 
 07/07/15, 09:00,  20.2,  99,  18.6,  18.0,  17.7,   0.0,  2.63, 
 07/07/15, 10:00,  22.2,  90,  19.5,  18.1,  17.7,   0.0,  2.28, 
 07/07/15, 11:00,  24.6,  77,  20.2,  18.1,  17.7,   0.0,  2.46, 
 07/07/15, 12:00,  24.1,  77,  21.3,  18.3,  17.8,   0.0,  3.12, 
 07/07/15, 13:00,  26.0,  64,  22.4,  18.5,  17.8,   0.0,  3.17, 
 07/07/15, 14:00,  25.4,  77,  22.9,  18.7,  17.7,   0.0,  2.62, 
 07/07/15, 15:00,  25.0,  79,  23.2,  19.0,  17.7,   0.0,  2.99, 
 07/07/15, 16:00,  20.0,  99,  23.2,  19.4,  17.8,   0.5,  0.55, 
 07/07/15, 17:00,  18.2,  99,  23.0,  19.7,  17.8,   2.0,  0.09, 
 07/07/15, 18:00,  17.9,  99,  22.4,  19.9,  17.7,   0.0,  0.05, 
 07/07/15, 19:00,  17.4,  99,  22.0,  20.0,  17.7,   1.0,  0.00, 
 07/07/15, 20:00,  17.1,  99,  21.7,  20.1,  17.8,   0.5,  0.00, 
 07/07/15, 21:00,  17.0,  99,  21.3,  20.1,  17.8,   0.0,  0.00, 
 07/07/15, 22:00,  16.9,  99,  21.0,  20.1,  17.8,   0.0,  0.00, 
 07/07/15, 23:00,  17.0,  99,  20.8,  20.1,  17.9,   0.0,  0.00, 
 07/07/16, 00:00,  16.6,  99,  20.5,  19.9,  17.9,   0.0,  0.00, 
 07/07/16, 01:00,  16.7,  99,  20.3,  19.9,  17.9,   0.0,  0.00, 